Terminal Aerodrome Forecast
Issued by NWS Mt. Holly, NJ

Home | Current Version | Previous Version | Text Only | Print | Product List | Glossary On
Versions: 1 2 3 4 5 6 7 8 9 10 11 12 13 14 15 16 17 18 19 20
000
FTUS41 KPHI 311100
TAFTTN
TAF
KTTN 311131Z 3112/0112 36005KT P6SM SCT035
     FM311600 04006KT P6SM BKN040
     FM010600 06006KT P6SM OVC025
     FM011000 06010G18KT 5SM -RA OVC015=

USA.gov is the U.S. government's official web portal to all federal, state and local government web resources and services.